When you browse on this site, cookies collect data to enhance your experience and personalize the content and advertising you see.
Visit our Privacy Policy to learn more. By continuing to use the site, you agree to this use of cookies and data.
  • En España
  • Lista de países
  • Para 7 días
  • Temperatura del agua
  • El tiempo en el mapa
  • Informadores
  • user-avatar
    Iniciar sesión

    Tiempo cada hora Mayrhofen

    Hoy, 4 Abril, Sábado

    Tiempo Temperatura Precipitaciones Viento Presión Humedad
    00:00 -3°C° 0 mm 1 mps 615 mmHg 95%
    01:00 -3°C° 0 mm 1 mps 616 mmHg 96%
    02:00 -3°C° 0 mm 1 mps 616 mmHg 95%
    03:00 -3°C° 0 mm 1 mps 616 mmHg 94%
    04:00 -3°C° 0 mm 1 mps 616 mmHg 92%
    05:00 -3°C° 0 mm 1 mps 616 mmHg 89%
    06:00 -2°C° 0 mm 1 mps 617 mmHg 85%
    07:00 -1°C° 0 mm 1 mps 617 mmHg 82%
    08:00 0°C° 0 mm 1 mps 618 mmHg 78%
    09:00 +2°C° 0 mm 1 mps 618 mmHg 73%
    10:00 +3°C° 0 mm 1 mps 619 mmHg 69%
    11:00 +4°C° 0 mm 1 mps 619 mmHg 66%
    12:00 +5°C° 0 mm 1 mps 619 mmHg 62%
    13:00 +6°C° 0 mm 1 mps 619 mmHg 59%
    14:00 +6°C° 0 mm 1 mps 619 mmHg 59%
    15:00 +6°C° 0 mm 1 mps 619 mmHg 58%
    16:00 +6°C° 0 mm 1 mps 619 mmHg 58%
    17:00 +4°C° 0 mm 1 mps 619 mmHg 67%
    18:00 +2°C° 0 mm 1 mps 618 mmHg 76%
    19:00 0°C° 0 mm 1 mps 618 mmHg 85%
    20:00 0°C° 0 mm 1 mps 618 mmHg 84%
    21:00 -1°C° 0 mm 1 mps 618 mmHg 83%
    22:00 -1°C° 0 mm 1 mps 619 mmHg 83%
    23:00 -1°C° 0 mm 1 mps 619 mmHg 82%

    Mañana, 5 Abril, Domingo

    Tiempo Temperatura Precipitaciones Viento Presión Humedad
    00:00 -2°C° 0 mm 1 mps 619 mmHg 82%
    01:00 -2°C° 0 mm 1 mps 619 mmHg 81%
    02:00 -2°C° 0 mm 1 mps 619 mmHg 81%
    03:00 -2°C° 0 mm 1 mps 619 mmHg 82%
    04:00 -4°C° 0 mm 2 mps 619 mmHg 82%
    05:00 -3°C° 0 mm 2 mps 619 mmHg 79%
    06:00 -3°C° 0 mm 2 mps 619 mmHg 77%
    07:00 0°C° 0 mm 1 mps 620 mmHg 75%
    08:00 +2°C° 0 mm 1 mps 620 mmHg 69%
    09:00 +4°C° 0 mm 1 mps 621 mmHg 63%
    10:00 +6°C° 0 mm 1 mps 622 mmHg 57%
    11:00 +7°C° 0 mm 2 mps 622 mmHg 53%
    12:00 +8°C° 0 mm 2 mps 622 mmHg 49%
    13:00 +9°C° 0 mm 2 mps 622 mmHg 46%
    14:00 +9°C° 0 mm 2 mps 622 mmHg 47%
    15:00 +9°C° 0 mm 2 mps 621 mmHg 48%
    16:00 +8°C° 0 mm 2 mps 621 mmHg 49%
    17:00 +6°C° 0 mm 2 mps 620 mmHg 59%
    18:00 +4°C° 0 mm 2 mps 620 mmHg 69%
    19:00 +2°C° 0 mm 2 mps 619 mmHg 79%
    20:00 +1°C° 0 mm 2 mps 619 mmHg 82%
    21:00 0°C° 0 mm 3 mps 620 mmHg 84%
    22:00 -1°C° 0 mm 3 mps 620 mmHg 86%
    23:00 -1°C° 0 mm 3 mps 620 mmHg 87%

    Pasado mañana, 6 Abril, Lunes

    Tiempo Temperatura Precipitaciones Viento Presión Humedad
    00:00 -1°C° 0 mm 3 mps 620 mmHg 89%
    01:00 -2°C° 0 mm 3 mps 620 mmHg 90%
    02:00 -2°C° 0 mm 3 mps 620 mmHg 90%
    03:00 -2°C° 0 mm 2 mps 620 mmHg 89%
    04:00 -2°C° 0 mm 2 mps 620 mmHg 89%
    05:00 -2°C° 0 mm 2 mps 620 mmHg 86%
    06:00 -1°C° 0 mm 2 mps 620 mmHg 83%
    07:00 -1°C° 0 mm 2 mps 620 mmHg 79%
    08:00 +2°C° 0 mm 2 mps 621 mmHg 70%
    09:00 +4°C° 0 mm 2 mps 622 mmHg 61%
    10:00 +6°C° 0 mm 2 mps 623 mmHg 52%
    11:00 +8°C° 0 mm 2 mps 623 mmHg 48%
    12:00 +9°C° 0 mm 2 mps 623 mmHg 43%
    13:00 +10°C° 0 mm 2 mps 623 mmHg 38%
    14:00 +10°C° 0 mm 2 mps 623 mmHg 39%
    15:00 +10°C° 0 mm 2 mps 623 mmHg 39%
    16:00 +10°C° 0 mm 2 mps 623 mmHg 40%
    17:00 +7°C° 0 mm 2 mps 622 mmHg 50%
    18:00 +5°C° 0 mm 2 mps 621 mmHg 59%
    19:00 +2°C° 0 mm 2 mps 621 mmHg 69%
    20:00 +3°C° 0 mm 1 mps 621 mmHg 71%
    21:00 +2°C° 0 mm 1 mps 621 mmHg 73%
    22:00 +1°C° 0 mm 1 mps 622 mmHg 75%
    23:00 +1°C° 0 mm 1 mps 622 mmHg 77%

    7 Abril, Martes

    Tiempo Temperatura Precipitaciones Viento Presión Humedad
    00:00 +1°C° 0 mm 1 mps 622 mmHg 78%
    01:00 +1°C° 0 mm 1 mps 622 mmHg 80%
    02:00 +1°C° 0 mm 1 mps 622 mmHg 78%
    03:00 +1°C° 0 mm 1 mps 622 mmHg 77%
    04:00 +1°C° 0 mm 1 mps 622 mmHg 76%
    05:00 +2°C° 0 mm 1 mps 622 mmHg 73%
    06:00 +3°C° 0 mm 1 mps 623 mmHg 70%
    07:00 +4°C° 0 mm 1 mps 623 mmHg 68%
    08:00 +6°C° 0 mm 1 mps 624 mmHg 63%
    09:00 +8°C° 0 mm 1 mps 625 mmHg 58%
    10:00 +10°C° 0 mm 1 mps 625 mmHg 53%
    11:00 +10°C° 0 mm 1 mps 625 mmHg 50%
    12:00 +11°C° 0 mm 1 mps 626 mmHg 47%
    13:00 +12°C° 0 mm 1 mps 626 mmHg 44%
    14:00 +12°C° 0 mm 1 mps 625 mmHg 45%
    15:00 +12°C° 0 mm 1 mps 625 mmHg 45%
    16:00 +12°C° 0 mm 1 mps 625 mmHg 46%
    17:00 +9°C° 0 mm 1 mps 624 mmHg 59%
    18:00 +7°C° 0 mm 1 mps 623 mmHg 71%
    19:00 +3°C° 0 mm 0 mps 622 mmHg 84%
    20:00 +4°C° 0 mm 1 mps 622 mmHg 85%
    21:00 +3°C° 0 mm 1 mps 623 mmHg 86%
    22:00 +3°C° 0 mm 1 mps 623 mmHg 86%
    23:00 +2°C° 0 mm 1 mps 623 mmHg 86%

    8 Abril, Miércoles

    Tiempo Temperatura Precipitaciones Viento Presión Humedad
    00:00 +2°C° 0 mm 1 mps 623 mmHg 86%
    01:00 +2°C° 0 mm 1 mps 623 mmHg 86%
    02:00 +2°C° 0 mm 1 mps 622 mmHg 86%
    03:00 +1°C° 0 mm 1 mps 622 mmHg 86%
    04:00 +1°C° 0 mm 1 mps 622 mmHg 86%
    05:00 +2°C° 0 mm 1 mps 623 mmHg 83%
    06:00 +2°C° 0 mm 0 mps 623 mmHg 79%
    07:00 +3°C° 0 mm 0 mps 623 mmHg 76%
    08:00 +5°C° 0 mm 0 mps 624 mmHg 69%
    09:00 +8°C° 0 mm 1 mps 624 mmHg 63%
    10:00 +10°C° 0 mm 1 mps 625 mmHg 56%
    11:00 +11°C° 0.1 mm 1 mps 625 mmHg 56%
    12:00 +11°C° 0.1 mm 1 mps 624 mmHg 56%
    13:00 +11°C° 0.1 mm 1 mps 624 mmHg 55%
    14:00 +11°C° 0.3 mm 1 mps 624 mmHg 59%
    15:00 +11°C° 0.3 mm 1 mps 623 mmHg 63%
    16:00 +9°C° 0.3 mm 2 mps 623 mmHg 66%
    17:00 +9°C° 0.3 mm 1 mps 623 mmHg 74%
    18:00 +7°C° 0.3 mm 1 mps 622 mmHg 82%
    19:00 +5°C° 0.3 mm 1 mps 622 mmHg 90%
    20:00 +5°C° 0.1 mm 1 mps 622 mmHg 90%
    21:00 +3°C° 0.1 mm 0 mps 622 mmHg 91%
    22:00 +3°C° 0.1 mm 0 mps 622 mmHg 92%
    23:00 +3°C° 0 mm 0 mps 622 mmHg 92%

    9 Abril, Jueves

    Tiempo Temperatura Precipitaciones Viento Presión Humedad
    00:00 +2°C° 0 mm 0 mps 622 mmHg 93%
    01:00 +2°C° 0 mm 0 mps 622 mmHg 93%
    02:00 +2°C° 0 mm 0 mps 622 mmHg 93%
    03:00 +2°C° 0 mm 0 mps 621 mmHg 93%
    04:00 +2°C° 0 mm 1 mps 621 mmHg 93%
    05:00 +3°C° 0 mm 1 mps 622 mmHg 92%
    06:00 +4°C° 0 mm 1 mps 622 mmHg 90%
    07:00 +4°C° 0 mm 1 mps 622 mmHg 88%
    08:00 +6°C° 0 mm 1 mps 623 mmHg 79%
    09:00 +8°C° 0 mm 1 mps 623 mmHg 71%
    10:00 +10°C° 0 mm 1 mps 623 mmHg 62%
    11:00 +11°C° 0 mm 1 mps 624 mmHg 55%
    12:00 +12°C° 0 mm 1 mps 624 mmHg 49%
    13:00 +13°C° 0 mm 1 mps 624 mmHg 43%
    14:00 +13°C° 0 mm 1 mps 624 mmHg 43%
    15:00 +13°C° 0 mm 1 mps 624 mmHg 43%
    16:00 +13°C° 0 mm 2 mps 623 mmHg 43%
    17:00 +11°C° 0 mm 1 mps 622 mmHg 56%
    18:00 +8°C° 0 mm 1 mps 622 mmHg 68%
    19:00 +6°C° 0 mm 1 mps 621 mmHg 80%
    20:00 +5°C° 0 mm 1 mps 621 mmHg 83%
    21:00 +4°C° 0 mm 1 mps 621 mmHg 85%
    22:00 +3°C° 0 mm 0 mps 621 mmHg 88%
    23:00 +2°C° 0 mm 0 mps 621 mmHg 88%
    Mostrar más